Location: Bovenkerk
(52.2915°N, 4.8336°E)
Time: 01:21:25
(UTC+00:00)

SME Rocket - Pass Details

Date: 09 April 2020
Orbit: 550 x 2652 km, 99.9° (Epoch: 30 May)

Event Time Altitude Azimuth Distance (km) Brightness Sun altitude
Rises 23:41:18 0° 17° (NNE) 3,142 7.7 -29.7°
Reaches altitude 10° 23:43:45 10° 18° (NNE) 2,056 6.6 -29.7°
Enters shadow 23:46:19 35° 20° (NNE) 966 4.4 -29.7°
